Home > Weather > Bellinzona > Past weeks

Flag for Switzerland Past Weather in Bellinzona, Ticino, Switzerland — Yesterday and Last 2 Weeks

Now
67 °F

Mild.


Feels Like: 67 °F
Forecast: 68 / 89 °F
Wind: 2 mph from Northwest

Location: Locarno-Magadino

Current Time: Jul 27, 2016 at 11:10:25 PM

Latest Report: Jul 27, 2016 at 10:00 PM


Visibility: N/A

Pressure: 30.03 "Hg

Humidity: 94%

Dew Point: 65 °F

Location of BellinzonaLocation

Past Weather in Bellinzona — Graph

°F

Bellinzona Temperature Yesterday

Maximum temperature yesterday: 87 °F (at 4:00 PM)
Minimum temperature yesterday: 69 °F (at 6:00 AM)
Average temperature yesterday: 75 °F

High & Low Weather Summary for the Past Weeks

 TemperatureHumidityPressure
High89 °F (Jul 20, 5:00 PM)97% (Jul 23, 5:00 AM)30.17 "Hg (Jul 23, 5:00 AM)
Low51 °F (Jul 16, 3:00 AM)21% (Jul 16, 7:00 PM)29.66 "Hg (Jul 13, 3:00 PM)
Average71 °F66%30.01 "Hg
* Reported Jul 12 9:00 PM — Jul 27 9:00 PM, Bellinzona, Weather by CustomWeather, © 2016

Note: Actual official high and low records may vary slightly from our data, if they occured in-between our weather recording intervals... More about our weather records

Advertising

Bellinzona Weather History for the Previous 24 Hours

Scroll right to see more
 ConditionsComfort  
Time TempWeatherWind HumidityBarometerVisibility
9:00 PM
Wed, Jul 27
71 °FMild.5 mph72%29.97 "HgN/A
8:00 PM72 °FMild.13 mph67%29.93 "HgN/A
7:00 PM76 °FMild.14 mph56%29.93 "HgN/A
6:00 PM82 °FWarm.7 mph50%29.90 "HgN/A
5:00 PM81 °FWarm.8 mph62%29.92 "HgN/A
4:00 PM80 °FWarm.2 mph61%29.93 "HgN/A
3:00 PM78 °FWarm.5 mph72%29.95 "HgN/A
2:00 PM76 °FMild.7 mph70%29.96 "HgN/A
1:00 PM80 °FWarm.8 mph59%29.96 "HgN/A
12:00 PM80 °FWarm.7 mph60%29.97 "HgN/A
11:00 AM74 °FMild.1 mph70%30.00 "HgN/A
10:00 AM73 °FMild.2 mph74%30.00 "HgN/A
9:00 AM72 °FMild.2 mph78%30.01 "HgN/A
8:00 AM69 °FMild.No wind87%30.03 "HgN/A
7:00 AM65 °FMild.1 mph96%30.03 "HgN/A
6:00 AM66 °FMild.1 mph95%30.03 "HgN/A
5:00 AM67 °FMild.1 mph94%30.02 "HgN/A
4:00 AM67 °FMild.2 mph92%30.02 "HgN/A
3:00 AM68 °FMild.1 mph91%30.02 "HgN/A
2:00 AM68 °FMild.No wind93%30.03 "HgN/A
1:00 AM68 °FMild.2 mph92%30.04 "HgN/A
12:00 AM68 °FMild.2 mph92%30.06 "HgN/A
11:00 PM
Tue, Jul 26
69 °FMild.1 mph91%30.06 "HgN/A
Weather by CustomWeather, © 2016

See weather overviewHow to use our weather pages